EW0890 Weather Reports


time (UTC)temp
F
wind
direction
speed
knots
gust
knots
rain 1hr
in
rain 24hr
in
rain mn
in
humidity
%
barometer
mb
20240418164551 60 76 3.5 7.0 0.00 0.00 0.00 59 1018.4
20240418163047 59 87 6.1 9.6 0.00 0.00 0.00 59 1018.5
20240418161553 60 65 5.2 11.3 0.00 0.00 0.00 62 1018.6
20240418160059 58 63 6.1 9.6 0.00 0.00 0.00 63 1018.9
20240418154550 58 66 6.1 9.6 0.00 0.00 0.00 65 1018.8
20240418153058 57 77 7.0 12.2 0.00 0.00 0.00 64 1018.7
20240418151549 57 71 7.8 11.3 0.00 0.00 0.00 65 1018.5
20240418150048 57 77 9.6 13.0 0.00 0.00 0.00 65 1018.2
20240418144556 56 84 10.4 13.0 0.00 0.00 0.00 66 1017.8
20240418143047 56 76 9.6 12.2 0.00 0.00 0.00 68 1017.9
20240418141555 55 75 8.7 11.3 0.00 0.00 0.00 73 1018.1
20240418140051 54 78 7.8 11.3 0.00 0.00 0.00 77 1018.1
20240418134551 53 89 6.1 8.7 0.00 0.00 0.00 82 1018.2
20240418133050 52 70 4.3 6.1 0.00 0.00 0.00 86 1018.2
20240418131550 52 70 4.3 6.1 0.00 0.00 0.00 86 1018.2
20240418130050 51 76 0.0 1.7 0.00 0.00 0.00 89 1018.2
20240418124552 50 63 0.0 1.7 0.00 0.00 0.00 89 1018.0
20240418123058 49 0 0.0 0.9 0.00 0.00 0.00 89 1017.6
20240418121553 48 0 0.0 0.0 0.00 0.00 0.00 90 1017.6
20240418120051 48 0 0.0 1.7 0.00 0.00 0.00 91 1017.2
20240418114550 46 61 1.7 3.5 0.00 0.00 0.00 92 1016.4
20240418113051 45 67 2.6 4.3 0.00 0.00 0.00 92 1015.8
20240418111547 44 58 3.5 4.3 0.00 0.00 0.00 93 1015.7
20240418110052 44 51 4.3 5.2 0.00 0.00 0.00 93 1015.7
20240418104559 44 49 2.6 3.5 0.00 0.00 0.00 91 1015.9
20240418103052 45 34 0.9 1.7 0.00 0.00 0.00 93 1016.1
20240418101601 44 0 0.0 0.9 0.00 0.00 0.00 89 1016.3
20240418100055 47 0 0.0 0.0 0.00 0.00 0.00 91 1016.4
20240418094549 46 0 0.0 0.0 0.00 0.00 0.00 93 1016.2
20240418093050 44 0 0.0 1.7 0.00 0.00 0.00 90 1016.2
20240418091555 46 0 0.0 0.0 0.00 0.00 0.00 92 1016.2
20240418090052 45 0 0.0 0.0 0.00 0.00 0.00 91 1016.5
20240418084551 46 0 0.0 1.7 0.00 0.00 0.00 88 1016.7
20240418083048 46 0 0.0 0.0 0.00 0.00 0.00 89 1016.1
20240418081553 46 0 0.0 0.0 0.00 0.00 0.00 91 1016.3
20240418080050 46 0 0.0 0.0 0.00 0.00 0.00 91 1016.2
20240418074553 46 0 0.0 0.0 0.00 0.00 0.00 88 1016.0
20240418073056 47 0 0.0 0.9 0.00 0.00 0.00 89 1015.9
20240418071548 46 0 0.0 0.0 0.00 0.00 0.00 89 1016.2
20240418070059 46 0 0.0 1.7 0.00 0.00 0.00 90 1016.2
20240418064559 46 266 1.7 1.7 0.00 0.00 0.00 88 1016.2
20240418063052 47 264 0.9 1.7 0.00 0.00 0.00 88 1016.4
20240418061555 47 262 2.6 3.5 0.00 0.00 0.00 87 1016.4
20240418060049 47 0 0.0 0.0 0.00 0.00 0.00 88 1016.3
20240418054551 47 0 0.0 0.0 0.00 0.00 0.00 86 1016.1
20240418053058 47 0 0.0 0.0 0.00 0.00 0.00 88 1016.3
20240418051548 46 0 0.0 0.0 0.00 0.00 0.00 89 1016.2
20240418050101 47 0 0.0 0.0 0.00 0.00 0.00 86 1016.3
20240418044549 47 0 0.0 0.0 0.00 0.00 0.00 89 1016.2
20240418043049 46 0 0.0 0.0 0.00 0.00 0.00 87 1016.1
20240418041548 47 0 0.0 0.0 0.00 0.00 0.00 87 1016.1
20240418040113 48 0 0.0 0.0 0.00 0.00 0.00 85 1016.0
20240418034548 49 0 0.0 0.0 0.00 0.00 0.00 81 1015.9
20240418033053 50 0 0.0 0.0 0.00 0.00 0.00 83 1015.9
20240418031604 50 0 0.0 0.0 0.00 0.00 0.00 81 1015.9
20240418030053 51 0 0.0 0.0 0.00 0.00 0.00 81 1015.8
20240418024550 52 0 0.0 0.0 0.00 0.00 0.00 80 1015.7
20240418023047 53 0 0.0 0.0 0.00 0.00 0.00 78 1015.4
20240418021557 54 0 0.0 0.0 0.00 0.00 0.00 76 1015.2
20240418020101 55 0 0.0 2.6 0.00 0.00 0.00 75 1015.0
20240418014551 56 0 0.9 6.1 0.00 0.00 0.00 74 1014.4
20240418013048 56 270 4.3 5.2 0.00 0.00 0.00 73 1014.3
20240418011548 57 278 2.6 6.1 0.00 0.00 0.00 71 1013.9
20240418010048 58 288 4.3 7.8 0.00 0.00 0.00 70 1013.5
20240418004603 59 266 7.0 10.4 0.00 0.00 0.00 67 1013.1
20240418003053 60 278 7.8 13.9 0.00 0.00 0.00 65 1012.9
20240418001550 61 277 9.6 14.8 0.00 0.00 0.00 63 1012.7
20240418000051 61 276 11.3 16.5 0.00 0.00 0.00 62 1012.5
20240417234550 62 272 9.6 18.2 0.00 0.00 0.00 62 1012.2
20240417233050 62 275 12.2 18.2 0.00 0.00 0.00 62 1012.1
20240417231549 62 295 13.9 20.9 0.00 0.00 0.00 61 1012.0
20240417230048 63 264 13.0 19.1 0.00 0.00 0.00 61 1011.7
20240417224556 63 299 11.3 18.2 0.00 0.00 0.00 62 1011.6
20240417223052 63 285 10.4 18.2 0.00 0.00 0.00 62 1011.4
20240417221551 64 275 7.0 21.7 0.00 0.00 0.00 59 1011.2
20240417220051 63 281 12.2 21.7 0.00 0.00 0.00 61 1011.0
20240417214549 63 282 13.9 24.3 0.00 0.00 0.00 62 1010.8
20240417213105 63 281 16.5 22.6 0.00 0.00 0.00 61 1010.6
20240417211550 63 278 20.0 26.1 0.00 0.00 0.00 61 1010.3
20240417210051 63 276 19.1 28.7 0.00 0.00 0.00 61 1010.2
20240417204618 63 272 17.4 26.1 0.00 0.00 0.00 61 1010.0
20240417203055 64 279 19.1 26.1 0.00 0.00 0.00 61 1009.8
20240417201552 64 259 22.6 30.4 0.00 0.00 0.00 61 1009.8
20240417200050 63 278 20.0 27.8 0.00 0.00 0.00 64 1009.8
20240417194551 63 285 19.1 24.3 0.00 0.00 0.00 64 1009.6
20240417193053 64 267 17.4 26.1 0.00 0.00 0.00 62 1009.5
20240417191602 63 244 22.6 31.3 0.00 0.00 0.00 61 1009.2
20240417190057 64 278 21.7 26.9 0.00 0.00 0.00 60 1008.9
20240417184612 65 287 19.1 32.2 0.00 0.00 0.00 59 1008.8
20240417183055 65 288 22.6 29.5 0.00 0.00 0.00 58 1008.4
20240417181554 65 281 20.9 29.5 0.00 0.00 0.00 59 1008.2
20240417180059 65 262 21.7 28.7 0.00 0.00 0.00 59 1007.8
20240417174552 65 283 20.0 31.3 0.00 0.00 0.00 59 1007.7
20240417173113 64 262 21.7 32.2 0.00 0.00 0.00 61 1007.5
20240417171559 63 266 20.9 28.7 0.00 0.00 0.00 65 1007.2
20240417170056 63 264 25.2 30.4 0.00 0.00 0.00 62 1007.1